Погода в Удачном

Россия / Астраханская область     47°44′46″N   46°47′51″E
темп.,
°C
ветер,
м/с
пор.,
м/с
влажн.,
%
обл.,
%
осадки,
мм/ч
давл.,
гПа
погр.,
м
27 октября, ср
ср2701:00+1з22675 0.0 103310
04:000з22730 0.0 103310
07:000зюз22750 0.0 103310
10:00+5ююз33524 0.0 1033353
13:00+8ююз44385 0.0 1032921
16:00+9ююз44345 0.0 1030962
19:00+5ююв33485 0.0 102938
22:00+4ю45545 0.0 102867
28 октября, чт
чт2801:00+3ю47730 0.0 1028111
04:00+2ю35850 0.0 102667
07:00+2ююз33885 0.0 102629
10:00+7ююз46700 0.0 1026323
13:00+11юз56544 0.0 10241064
16:00+12юз45495 0.0 10221284
19:00+8зюз2271100 0.0 102210
22:00+10зюз1162100 0.0 102111
29 октября, пт
пт2901:00+10ююз3359100 0.0 102152
04:00+10юз2369100 0.0 102170
07:00+8сз3370100 0.0 102135
10:00+10сз343986 0.0 1023275
13:00+13сз333043 0.0 1023812
16:00+12сз5543100 0.0 1024529
19:00+9ссз4568100 0.0 1026259
22:00+10ссв4766100 0.0 1028396
30 октября, сб
сб3001:00+9св4772100 0.0 1029370
04:00+8св4776100 0.0 1030326
07:00+6св478622 0.0 1032159
10:00+9св56695 0.0 1034410
13:00+12св45485 0.0 1034808
16:00+13св44441 0.0 1033982
19:00+9св45570 0.0 103566
22:00+8св45630 0.0 103577
31 октября, вс
вс3101:00+7всв34700 0.0 103556
04:00+6всв45790 0.0 103566
07:00+5всв46820 0.0 103587
10:00+10в58560 0.0 1035312
13:00+15вюв67380 0.0 10341023
16:00+15вюв67350 0.0 10321228
19:00+11в48490 0.0 1032112
22:00+9вюв48660 0.0 1032127